Location: Newark
(45.5167°N, 11.1667°E)
Time: 13:22:44
(UTC+00:00)

Explorer 7 - Pass Details

Date: 15 December 2019
Orbit: 485 x 679 km, 50.3° (Epoch: 27 January)

Event Time Altitude Azimuth Distance (km) Brightness Sun altitude
Rises 20:16:46 0° 289° (WNW) 3,031 11.3 -48.5°
Enters shadow 20:17:24 - 286° (WNW) 2,814 11.1 -48.6°
Reaches altitude 10° 20:19:43 10° 272° (W) 2,099 - -49.0°
Maximum altitude 20:23:06 19° 228° (SW) 1,555 - -49.6°
Drops below altitude 10° 20:26:25 10° 183° (S) 2,037 - -50.1°
Sets 20:29:14 0° 165° (SSE) 2,908 - -50.6°
